Terminal Aerodrome Forecast
Issued by NWS Sterling, VA

Current Version | Previous Version | Graphics & Text | Print | Product List | Glossary On
Versions: 1 2 3 4 5 6 7 8 9 10 11 12 13 14 15 16 17 18 19 20 21 22 23 24 25
000
FTUS41 KLWX 172121 AAA
TAFIAD
TAF AMD
KIAD 172121Z 1721/1824 02003KT P6SM SCT060 BKN080
     FM180000 VRB03KT P6SM SCT050
     FM181500 01004KT P6SM FEW250
     FM182200 32008KT P6SM FEW250=

USA.gov is the U.S. government's official web portal to all federal, state and local government web resources and services.